Location: Newark
(33.6439°N, 114.9881°W)
Time: 13:43:54
(UTC+00:00)

Courier 1B - All Passes

Search period start: 25 August 2019 00:00
Search period end: 04 September 2019 00:00
Orbit: 962 x 1209 km, 28.3° (Epoch: 24 August)

Date Brightness Start Highest point End Pass type
(mag) Time Alt. Az. Time Alt. Az. Time Alt. Az.
25 Aug - 00:28:54 10° WSW 00:35:29 44° SSE 00:41:43 10° E daylight
25 Aug - 02:22:39 10° WSW 02:29:13 55° S 02:35:32 10° ESE daylight
25 Aug - 04:16:50 10° W 04:22:51 39° SSW 04:28:47 10° SE visible
25 Aug - 06:12:09 10° WSW 06:16:10 17° SSW 06:20:13 10° SSE visible
25 Aug - 21:43:38 10° SSW 21:48:14 18° SSE 21:52:41 10° ESE daylight
25 Aug - 23:35:14 10° SW 23:41:47 39° SSE 23:47:59 10° E daylight
26 Aug - 01:28:49 10° WSW 01:35:31 55° S 01:41:55 10° ESE daylight
26 Aug - 03:22:56 10° W 03:29:14 45° SSW 03:35:21 10° ESE visible
26 Aug - 05:17:46 10° WSW 05:22:38 22° SSW 05:27:29 10° SSE visible
26 Aug - 20:51:15 10° S 20:54:34 13° SSE 20:57:48 10° SE daylight
26 Aug - 22:41:40 10° SW 22:48:05 33° SSE 22:54:10 10° E daylight
27 Aug - 00:34:58 10° WSW 00:41:49 53° S 00:48:17 10° E daylight
27 Aug - 02:29:03 10° W 02:35:35 51° S 02:41:51 10° ESE visible
27 Aug - 04:23:35 10° WSW 04:29:04 28° SSW 04:34:29 10° SE visible
27 Aug - 21:48:14 10° SSW 21:54:23 28° SSE 22:00:13 10° ESE daylight
27 Aug - 23:41:08 10° WSW 23:48:04 50° S 23:54:36 10° E daylight
28 Aug - 01:35:08 10° W 01:41:54 55° S 01:48:18 10° ESE daylight
28 Aug - 03:29:32 10° W 03:35:30 35° SSW 03:41:18 10° SE visible
28 Aug - 05:25:50 10° WSW 05:28:44 13° SSW 05:31:38 10° S visible
28 Aug - 20:55:00 10° SSW 21:00:39 23° SSE 21:06:05 10° ESE daylight
28 Aug - 22:47:21 10° WSW 22:54:20 45° SSE 23:00:53 10° E daylight
29 Aug - 00:41:13 10° WSW 00:48:10 56° S 00:54:43 10° ESE daylight
29 Aug - 02:35:32 10° W 02:41:54 41° SSW 02:47:59 10° SE visible
29 Aug - 04:30:54 10° WSW 04:35:13 18° SSW 04:39:28 10° SSE visible
29 Aug - 20:02:06 10° SSW 20:06:56 18° SSE 20:11:39 10° ESE daylight
29 Aug - 21:53:39 10° SW 22:00:34 39° SSE 22:07:06 10° E daylight
29 Aug - 23:47:17 10° WSW 23:54:25 56° S 00:01:06 10° E daylight
30 Aug - 01:41:33 10° W 01:48:14 48° SSW 01:54:34 10° ESE daylight
30 Aug - 03:36:27 10° WSW 03:41:40 24° SSW 03:46:45 10° SSE visible
30 Aug - 19:09:46 10° S 19:13:12 13° SSE 19:16:36 10° ESE daylight
30 Aug - 21:00:03 10° SW 21:06:47 34° SSE 21:13:13 10° E daylight
30 Aug - 22:53:22 10° WSW 23:00:37 54° S 23:07:25 10° E daylight
31 Aug - 00:47:34 10° W 00:54:32 53° S 01:01:04 10° ESE daylight
31 Aug - 02:42:13 10° W 02:48:06 30° SSW 02:53:45 10° SE visible
31 Aug - 20:06:38 10° SSW 20:13:01 28° SSE 20:19:10 10° ESE daylight
31 Aug - 21:59:30 10° WSW 22:06:48 50° S 22:13:43 10° E daylight
31 Aug - 23:53:34 10° W 00:00:45 56° S 00:07:30 10° ESE daylight
01 Sep - 01:48:05 10° W 01:54:29 37° SSW 02:00:33 10° SE daylight
01 Sep - 03:44:12 10° WSW 03:47:45 15° SSW 03:51:13 10° S visible
01 Sep - 19:13:27 10° SSW 19:19:15 23° SSE 19:24:55 10° ESE daylight
01 Sep - 21:05:42 10° SW 21:12:59 45° SSE 21:19:55 10° E daylight
01 Sep - 22:59:35 10° WSW 23:06:57 58° S 23:13:53 10° ESE daylight
02 Sep - 00:54:00 10° W 01:00:49 44° SSW 01:07:13 10° SE daylight
02 Sep - 02:49:21 10° WSW 02:54:12 20° SSW 02:58:54 10° SSE visible
02 Sep - 18:20:39 10° S 18:25:30 18° SSE 18:30:18 10° ESE daylight
02 Sep - 20:12:01 10° SW 20:19:09 40° SSE 20:26:02 10° E daylight
02 Sep - 22:05:37 10° WSW 22:13:06 57° S 22:20:11 10° E daylight
02 Sep - 23:59:56 10° W 00:07:04 50° S 00:13:46 10° ESE daylight
03 Sep - 01:54:53 10° WSW 02:00:37 26° SSW 02:06:07 10° SSE daylight
03 Sep - 17:28:34 10° S 17:31:46 13° SSE 17:34:58 10° SE daylight
03 Sep - 19:18:28 10° SW 19:25:20 34° SSE 19:32:01 10° E daylight
03 Sep - 21:11:41 10° WSW 21:19:14 55° S 21:26:27 10° E daylight
03 Sep - 23:05:53 10° W 23:13:16 55° S 23:20:13 10° ESE daylight
